Year,Month,Day,Hour,Minute,Value (Times are PST for temperature in C)
2006,07,24,00,00,19.80
2006,07,24,00,01,19.70
2006,07,24,00,02,19.60
2006,07,24,00,03,19.50
2006,07,24,00,04,19.50
2006,07,24,00,05,19.40
2006,07,24,00,06,19.30
2006,07,24,00,07,19.20
2006,07,24,00,08,19.00
2006,07,24,00,09,18.80
2006,07,24,00,10,18.80
2006,07,24,00,11,18.60
2006,07,24,00,12,18.40
2006,07,24,00,13,18.20
2006,07,24,00,14,18.00
2006,07,24,00,15,17.90
2006,07,24,00,16,17.70
2006,07,24,00,17,17.60
2006,07,24,00,18,17.40
2006,07,24,00,19,17.30
2006,07,24,00,20,17.20
2006,07,24,00,21,17.10
2006,07,24,00,22,17.00
2006,07,24,00,23,17.00
2006,07,24,00,24,16.90
2006,07,24,00,25,16.90
2006,07,24,00,26,16.80
2006,07,24,00,27,16.80
2006,07,24,00,28,16.80
2006,07,24,00,29,16.70
2006,07,24,00,30,16.70
2006,07,24,00,31,16.70
2006,07,24,00,32,16.70
2006,07,24,00,33,16.70
2006,07,24,00,34,16.70
2006,07,24,00,35,16.70
2006,07,24,00,36,16.70
2006,07,24,00,37,16.70
2006,07,24,00,38,16.70
2006,07,24,00,39,16.70
2006,07,24,00,40,16.70
2006,07,24,00,41,16.60
2006,07,24,00,42,16.60
2006,07,24,00,43,16.60
2006,07,24,00,44,16.60
2006,07,24,00,45,16.60
2006,07,24,00,46,16.60
2006,07,24,00,47,16.60
2006,07,24,00,48,16.60
2006,07,24,00,49,16.60
2006,07,24,00,50,16.60
2006,07,24,00,51,16.60
2006,07,24,00,52,16.60
2006,07,24,00,53,16.60
2006,07,24,00,54,16.60
2006,07,24,00,55,16.60
2006,07,24,00,56,16.60
2006,07,24,00,57,16.60
2006,07,24,00,58,16.60
2006,07,24,00,59,16.60
2006,07,24,01,00,16.60
2006,07,24,01,01,16.60
2006,07,24,01,02,16.60
2006,07,24,01,03,16.60
2006,07,24,01,04,16.60
2006,07,24,01,05,16.60
2006,07,24,01,06,16.60
2006,07,24,01,07,16.60
2006,07,24,01,08,16.70
2006,07,24,01,09,16.70
2006,07,24,01,10,16.70
2006,07,24,01,11,16.70
2006,07,24,01,12,16.80
2006,07,24,01,13,16.90
2006,07,24,01,14,17.00
2006,07,24,01,15,17.10
2006,07,24,01,16,17.30
2006,07,24,01,17,17.30
2006,07,24,01,18,17.40
2006,07,24,01,19,17.50
2006,07,24,01,20,17.50
2006,07,24,01,21,17.60
2006,07,24,01,22,17.60
2006,07,24,01,23,17.60
2006,07,24,01,24,17.60
2006,07,24,01,25,17.60
2006,07,24,01,26,17.60
2006,07,24,01,27,17.60
2006,07,24,01,28,17.60
2006,07,24,01,29,17.60
2006,07,24,01,30,17.50
2006,07,24,01,31,17.50
2006,07,24,01,32,17.50
2006,07,24,01,33,17.50
2006,07,24,01,34,17.50
2006,07,24,01,35,17.50
2006,07,24,01,36,17.50
2006,07,24,01,37,17.60
2006,07,24,01,38,17.60
2006,07,24,01,39,17.60
2006,07,24,01,40,17.60
2006,07,24,01,41,17.60
2006,07,24,01,42,17.60
2006,07,24,01,43,17.60
2006,07,24,01,44,17.60
2006,07,24,01,45,17.70
2006,07,24,01,46,17.70
2006,07,24,01,47,17.70
2006,07,24,01,48,17.70
2006,07,24,01,49,17.70
2006,07,24,01,50,17.70
2006,07,24,01,51,17.70
2006,07,24,01,52,17.70
2006,07,24,01,53,17.70
2006,07,24,01,54,17.70
2006,07,24,01,55,17.60
2006,07,24,01,56,17.60
2006,07,24,01,57,17.60
2006,07,24,01,58,17.60
2006,07,24,01,59,17.60
2006,07,24,02,00,17.60
2006,07,24,02,01,17.60
2006,07,24,02,02,17.60
2006,07,24,02,03,17.60
2006,07,24,02,04,17.60
2006,07,24,02,05,17.60
2006,07,24,02,06,17.70
2006,07,24,02,07,17.70
2006,07,24,02,08,17.70
2006,07,24,02,09,17.70
2006,07,24,02,10,17.70
2006,07,24,02,11,17.70
2006,07,24,02,12,17.80
2006,07,24,02,13,17.80
2006,07,24,02,14,17.90
2006,07,24,02,15,17.90
2006,07,24,02,16,17.90
2006,07,24,02,17,17.90
2006,07,24,02,18,17.90
2006,07,24,02,19,17.90
2006,07,24,02,20,17.90
2006,07,24,02,21,17.90
2006,07,24,02,22,17.90
2006,07,24,02,23,17.90
2006,07,24,02,24,18.10
2006,07,24,02,25,18.10
2006,07,24,02,26,18.10
2006,07,24,02,27,18.10
2006,07,24,02,28,18.10
2006,07,24,02,29,18.10
2006,07,24,02,30,18.10
2006,07,24,02,31,18.10
2006,07,24,02,32,18.20
2006,07,24,02,33,18.20
2006,07,24,02,34,18.20
2006,07,24,02,35,18.20
2006,07,24,02,36,18.20
2006,07,24,02,37,18.20
2006,07,24,02,38,18.30
2006,07,24,02,39,18.30
2006,07,24,02,40,18.30
2006,07,24,02,41,18.40
2006,07,24,02,42,18.50
2006,07,24,02,43,18.60
2006,07,24,02,44,18.60
2006,07,24,02,45,18.70
2006,07,24,02,46,18.70
2006,07,24,02,47,18.70
2006,07,24,02,48,18.80
2006,07,24,02,49,18.90
2006,07,24,02,50,19.00
2006,07,24,02,51,19.10
2006,07,24,02,52,19.10
2006,07,24,02,53,19.20
2006,07,24,02,54,19.20
2006,07,24,02,55,19.20
2006,07,24,02,56,19.20
2006,07,24,02,57,19.20
2006,07,24,02,58,19.20
2006,07,24,02,59,19.20
2006,07,24,03,00,19.10
2006,07,24,03,01,19.10
2006,07,24,03,02,19.10
2006,07,24,03,03,19.20
2006,07,24,03,04,19.20
2006,07,24,03,05,19.30
2006,07,24,03,06,19.30
2006,07,24,03,07,19.30
2006,07,24,03,08,19.30
2006,07,24,03,09,19.30
2006,07,24,03,10,19.40
2006,07,24,03,11,19.30
2006,07,24,03,12,19.30
2006,07,24,03,13,19.30
2006,07,24,03,14,19.30
2006,07,24,03,15,19.30
2006,07,24,03,16,19.20
2006,07,24,03,17,19.20
2006,07,24,03,18,19.20
2006,07,24,03,19,19.10
2006,07,24,03,20,19.10
2006,07,24,03,21,19.10
2006,07,24,03,22,19.10
2006,07,24,03,23,19.10
2006,07,24,03,24,19.00
2006,07,24,03,25,18.90
2006,07,24,03,26,18.90
2006,07,24,03,27,18.90
2006,07,24,03,28,18.80
2006,07,24,03,29,18.70
2006,07,24,03,30,18.60
2006,07,24,03,31,18.50
2006,07,24,03,32,18.40
2006,07,24,03,33,18.30
2006,07,24,03,34,18.20
2006,07,24,03,35,18.20
2006,07,24,03,36,18.10
2006,07,24,03,37,18.00
2006,07,24,03,38,17.90
2006,07,24,03,39,17.90
2006,07,24,03,40,17.90
2006,07,24,03,41,17.80
2006,07,24,03,42,17.70
2006,07,24,03,43,17.70
2006,07,24,03,44,17.60
2006,07,24,03,45,17.60
2006,07,24,03,46,17.60
2006,07,24,03,47,17.50
2006,07,24,03,48,17.50
2006,07,24,03,49,17.40
2006,07,24,03,50,17.40
2006,07,24,03,51,17.40
2006,07,24,03,52,17.30
2006,07,24,03,53,17.30
2006,07,24,03,54,17.30
2006,07,24,03,55,17.30
2006,07,24,03,56,17.30
2006,07,24,03,57,17.30
2006,07,24,03,58,17.30
2006,07,24,03,59,17.30
2006,07,24,04,00,17.30
2006,07,24,04,01,17.30
2006,07,24,04,02,17.30
2006,07,24,04,03,17.40
2006,07,24,04,04,17.40
2006,07,24,04,05,17.40
2006,07,24,04,06,17.50
2006,07,24,04,07,17.50
2006,07,24,04,08,17.60
2006,07,24,04,09,17.60
2006,07,24,04,10,17.70
2006,07,24,04,11,17.70
2006,07,24,04,12,17.80
2006,07,24,04,13,17.80
2006,07,24,04,14,17.90
2006,07,24,04,15,17.90
2006,07,24,04,16,17.90
2006,07,24,04,17,17.90
2006,07,24,04,18,18.00
2006,07,24,04,19,18.20
2006,07,24,04,20,18.20
2006,07,24,04,21,18.20
2006,07,24,04,22,18.20
2006,07,24,04,23,18.20
2006,07,24,04,24,18.20
2006,07,24,04,25,18.20
2006,07,24,04,26,18.10
2006,07,24,04,27,18.00
2006,07,24,04,28,17.90
2006,07,24,04,29,17.90
2006,07,24,04,30,17.90
2006,07,24,04,31,17.70
2006,07,24,04,32,17.70
2006,07,24,04,33,17.60
2006,07,24,04,34,17.60
2006,07,24,04,35,17.50
2006,07,24,04,36,17.50
2006,07,24,04,37,17.50
2006,07,24,04,38,17.40
2006,07,24,04,39,17.40
2006,07,24,04,40,17.40
2006,07,24,04,41,17.40
2006,07,24,04,42,17.40
2006,07,24,04,43,17.40
2006,07,24,04,44,17.30
2006,07,24,04,45,17.30
2006,07,24,04,46,17.30
2006,07,24,04,47,17.30
2006,07,24,04,48,17.30
2006,07,24,04,49,17.20
2006,07,24,04,50,17.20
2006,07,24,04,51,17.20
2006,07,24,04,52,17.20
2006,07,24,04,53,17.10
2006,07,24,04,54,17.10
2006,07,24,04,55,17.00
2006,07,24,04,56,17.00
2006,07,24,04,57,17.00
2006,07,24,04,58,17.00
2006,07,24,04,59,16.90
2006,07,24,05,00,16.90
2006,07,24,05,01,16.90
2006,07,24,05,02,16.90
2006,07,24,05,03,16.90
2006,07,24,05,04,16.90
2006,07,24,05,05,16.80
2006,07,24,05,06,16.80
2006,07,24,05,07,16.80
2006,07,24,05,08,16.70
2006,07,24,05,09,16.70
2006,07,24,05,10,16.70
2006,07,24,05,11,16.70
2006,07,24,05,12,16.70
2006,07,24,05,13,16.70
2006,07,24,05,14,16.70
2006,07,24,05,15,16.70
2006,07,24,05,16,16.70
2006,07,24,05,17,16.70
2006,07,24,05,18,16.60
2006,07,24,05,19,16.60
2006,07,24,05,20,16.60
2006,07,24,05,21,16.60
2006,07,24,05,22,16.60
2006,07,24,05,23,16.60
2006,07,24,05,24,16.60
2006,07,24,05,25,16.60
2006,07,24,05,26,16.60
2006,07,24,05,27,16.60
2006,07,24,05,28,16.60
2006,07,24,05,29,16.60
2006,07,24,05,30,16.60
2006,07,24,05,31,16.40
2006,07,24,05,32,16.40
2006,07,24,05,33,16.40
2006,07,24,05,34,16.40
2006,07,24,05,35,16.40
2006,07,24,05,36,16.40
2006,07,24,05,37,16.40
2006,07,24,05,38,16.40
2006,07,24,05,39,16.40
2006,07,24,05,40,16.40
2006,07,24,05,41,16.40
2006,07,24,05,42,16.50
2006,07,24,05,43,16.60
2006,07,24,05,44,16.60
2006,07,24,05,45,16.60
2006,07,24,05,46,16.60
2006,07,24,05,47,16.60
2006,07,24,05,48,16.60
2006,07,24,05,49,16.60
2006,07,24,05,50,16.60
2006,07,24,05,51,16.70
2006,07,24,05,52,16.70
2006,07,24,05,53,16.70
2006,07,24,05,54,16.70
2006,07,24,05,55,16.70
2006,07,24,05,56,16.80
2006,07,24,05,57,16.80
2006,07,24,05,58,16.80
2006,07,24,05,59,16.80
2006,07,24,06,00,16.90
2006,07,24,06,01,16.90
2006,07,24,06,02,16.90
2006,07,24,06,03,16.90
2006,07,24,06,04,16.90
2006,07,24,06,05,16.90
2006,07,24,06,06,17.00
2006,07,24,06,07,17.00
2006,07,24,06,08,17.00
2006,07,24,06,09,17.00
2006,07,24,06,10,17.00
2006,07,24,06,11,17.00
2006,07,24,06,12,17.00
2006,07,24,06,13,17.10
2006,07,24,06,14,17.10
2006,07,24,06,15,17.10
2006,07,24,06,16,17.20
2006,07,24,06,17,17.20
2006,07,24,06,18,17.20
2006,07,24,06,19,17.20
2006,07,24,06,20,17.30
2006,07,24,06,21,17.30
2006,07,24,06,22,17.30
2006,07,24,06,23,17.30
2006,07,24,06,24,17.30
2006,07,24,06,25,17.30
2006,07,24,06,26,17.30
2006,07,24,06,27,17.30
2006,07,24,06,28,17.40
2006,07,24,06,29,17.40
2006,07,24,06,30,17.40
2006,07,24,06,31,17.40
2006,07,24,06,32,17.50
2006,07,24,06,33,17.50
2006,07,24,06,34,17.50
2006,07,24,06,35,17.50
2006,07,24,06,36,17.60
2006,07,24,06,37,17.60
2006,07,24,06,38,17.70
2006,07,24,06,39,17.80
2006,07,24,06,40,18.00
2006,07,24,06,41,18.10
2006,07,24,06,42,18.20
2006,07,24,06,43,18.30
2006,07,24,06,44,18.40
2006,07,24,06,45,18.50
2006,07,24,06,46,18.60
2006,07,24,06,47,18.70
2006,07,24,06,48,18.70
2006,07,24,06,49,18.90
2006,07,24,06,50,18.90
2006,07,24,06,51,19.00
2006,07,24,06,52,19.10
2006,07,24,06,53,19.10
2006,07,24,06,54,19.10
2006,07,24,06,55,19.20
2006,07,24,06,56,19.20
2006,07,24,06,57,19.30
2006,07,24,06,58,19.30
2006,07,24,06,59,19.40
2006,07,24,07,00,19.40
2006,07,24,07,01,19.50
2006,07,24,07,02,19.50
2006,07,24,07,03,19.60
2006,07,24,07,04,19.60
2006,07,24,07,05,19.60
2006,07,24,07,06,19.50
2006,07,24,07,07,19.50
2006,07,24,07,08,19.50
2006,07,24,07,09,19.50
2006,07,24,07,10,19.40
2006,07,24,07,11,19.40
2006,07,24,07,12,19.40
2006,07,24,07,13,19.30
2006,07,24,07,14,19.30
2006,07,24,07,15,19.30
2006,07,24,07,16,19.30
2006,07,24,07,17,19.30
2006,07,24,07,18,19.40
2006,07,24,07,19,19.40
2006,07,24,07,20,19.50
2006,07,24,07,21,19.50
2006,07,24,07,22,19.50
2006,07,24,07,23,19.60
2006,07,24,07,24,19.60
2006,07,24,07,25,19.60
2006,07,24,07,26,19.60
2006,07,24,07,27,19.60
2006,07,24,07,28,19.70
2006,07,24,07,29,19.70
2006,07,24,07,30,19.70
2006,07,24,07,31,19.80
2006,07,24,07,32,19.80
2006,07,24,07,33,19.90
2006,07,24,07,34,19.90
2006,07,24,07,35,19.90
2006,07,24,07,36,19.90
2006,07,24,07,37,20.00
2006,07,24,07,38,20.10
2006,07,24,07,39,20.10
2006,07,24,07,40,20.10
2006,07,24,07,41,20.20
2006,07,24,07,42,20.20
2006,07,24,07,43,20.20
2006,07,24,07,44,20.30
2006,07,24,07,45,20.30
2006,07,24,07,46,20.40
2006,07,24,07,47,20.40
2006,07,24,07,48,20.40
2006,07,24,07,49,20.50
2006,07,24,07,50,20.50
2006,07,24,07,51,20.50
2006,07,24,07,52,20.60
2006,07,24,07,53,20.60
2006,07,24,07,54,20.60
2006,07,24,07,55,20.70
2006,07,24,07,56,20.70
2006,07,24,07,57,20.80
2006,07,24,07,58,20.80
2006,07,24,07,59,20.90
2006,07,24,08,00,20.90
2006,07,24,08,01,20.90
2006,07,24,08,02,20.80
2006,07,24,08,03,20.90
2006,07,24,08,04,20.90
2006,07,24,08,05,20.90
2006,07,24,08,06,20.90
2006,07,24,08,07,20.90
2006,07,24,08,08,21.00
2006,07,24,08,09,21.10
2006,07,24,08,10,21.10
2006,07,24,08,11,21.20
2006,07,24,08,12,21.30
2006,07,24,08,13,21.30
2006,07,24,08,14,21.30
2006,07,24,08,15,21.40
2006,07,24,08,16,21.50
2006,07,24,08,17,21.60
2006,07,24,08,18,21.60
2006,07,24,08,19,21.60
2006,07,24,08,20,21.60
2006,07,24,08,21,21.60
2006,07,24,08,22,21.60
2006,07,24,08,23,21.70
2006,07,24,08,24,21.70
2006,07,24,08,25,21.70
2006,07,24,08,26,21.80
2006,07,24,08,27,21.80
2006,07,24,08,28,21.80
2006,07,24,08,29,21.80
2006,07,24,08,30,21.80
2006,07,24,08,31,21.80
2006,07,24,08,32,21.80
2006,07,24,08,33,21.80
2006,07,24,08,34,21.70
2006,07,24,08,35,21.70
2006,07,24,08,36,21.60
2006,07,24,08,37,21.60
2006,07,24,08,38,21.60
2006,07,24,08,39,21.50
2006,07,24,08,40,21.40
2006,07,24,08,41,21.40
2006,07,24,08,42,21.40
2006,07,24,08,43,21.30
2006,07,24,08,44,21.30
2006,07,24,08,45,21.20
2006,07,24,08,46,21.10
2006,07,24,08,47,21.10
2006,07,24,08,48,21.10
2006,07,24,08,49,21.20
2006,07,24,08,50,21.20
2006,07,24,08,51,21.20
2006,07,24,08,52,21.30
2006,07,24,08,53,21.20
2006,07,24,08,54,21.20
2006,07,24,08,55,21.10
2006,07,24,08,56,21.10
2006,07,24,08,57,21.00
2006,07,24,08,58,21.00
2006,07,24,08,59,21.00
2006,07,24,09,00,21.00
2006,07,24,09,01,21.00
2006,07,24,09,02,21.00
2006,07,24,09,03,21.10
2006,07,24,09,04,21.20
2006,07,24,09,05,21.20
2006,07,24,09,06,21.30
2006,07,24,09,07,21.30
2006,07,24,09,08,21.30
2006,07,24,09,09,21.40
2006,07,24,09,10,21.40
2006,07,24,09,11,21.50
2006,07,24,09,12,21.60
2006,07,24,09,13,21.70
2006,07,24,09,14,21.70
2006,07,24,09,15,21.60
2006,07,24,09,16,21.60
2006,07,24,09,17,21.60
2006,07,24,09,18,21.60
2006,07,24,09,19,21.60
2006,07,24,09,20,21.60
2006,07,24,09,21,21.70
2006,07,24,09,22,21.70
2006,07,24,09,23,21.80
2006,07,24,09,24,21.80
2006,07,24,09,25,21.90
2006,07,24,09,26,21.80
2006,07,24,09,27,21.80
2006,07,24,09,28,21.80
2006,07,24,09,29,21.70
2006,07,24,09,30,21.60
2006,07,24,09,31,21.60
2006,07,24,09,32,21.60
2006,07,24,09,33,21.60
2006,07,24,09,34,21.60
2006,07,24,09,35,21.60
2006,07,24,09,36,21.70
2006,07,24,09,37,21.80
2006,07,24,09,38,21.80
2006,07,24,09,39,21.90
2006,07,24,09,40,21.90
2006,07,24,09,41,21.90
2006,07,24,09,42,21.90
2006,07,24,09,43,21.90
2006,07,24,09,44,22.00
2006,07,24,09,45,22.10
2006,07,24,09,46,22.20
2006,07,24,09,47,22.20
2006,07,24,09,48,22.30
2006,07,24,09,49,22.30
2006,07,24,09,50,22.20
2006,07,24,09,51,22.00
2006,07,24,09,52,22.00
2006,07,24,09,53,22.00
2006,07,24,09,54,22.00
2006,07,24,09,55,22.00
2006,07,24,09,56,22.00
2006,07,24,09,57,21.90
2006,07,24,09,58,21.80
2006,07,24,09,59,21.80
2006,07,24,10,00,21.80
2006,07,24,10,01,21.70
2006,07,24,10,02,21.60
2006,07,24,10,03,21.60
2006,07,24,10,04,21.60
2006,07,24,10,05,21.50
2006,07,24,10,06,21.40
2006,07,24,10,07,21.30
2006,07,24,10,08,21.30
2006,07,24,10,09,21.30
2006,07,24,10,10,21.30
2006,07,24,10,11,21.30
2006,07,24,10,12,21.40
2006,07,24,10,13,21.50
2006,07,24,10,14,21.60
2006,07,24,10,15,21.60
2006,07,24,10,16,21.70
2006,07,24,10,17,21.80
2006,07,24,10,18,21.80
2006,07,24,10,19,21.90
2006,07,24,10,20,21.90
2006,07,24,10,21,21.90
2006,07,24,10,22,21.80
2006,07,24,10,23,21.70
2006,07,24,10,24,21.80
2006,07,24,10,25,21.70
2006,07,24,10,26,21.70
2006,07,24,10,27,21.70
2006,07,24,10,28,21.70
2006,07,24,10,29,21.80
2006,07,24,10,30,21.80
2006,07,24,10,31,21.80
2006,07,24,10,32,21.80
2006,07,24,10,33,22.00
2006,07,24,10,34,22.10
2006,07,24,10,35,22.20
2006,07,24,10,36,22.40
2006,07,24,10,37,22.40
2006,07,24,10,38,22.40
2006,07,24,10,39,22.30
2006,07,24,10,40,22.40
2006,07,24,10,41,22.50
2006,07,24,10,42,22.60
2006,07,24,10,43,22.70
2006,07,24,10,44,22.70
2006,07,24,10,45,22.60
2006,07,24,10,46,22.60
2006,07,24,10,47,22.60
2006,07,24,10,48,22.60
2006,07,24,10,49,22.60
2006,07,24,10,50,22.60
2006,07,24,10,51,22.70
2006,07,24,10,52,22.70
2006,07,24,10,53,22.70
2006,07,24,10,54,22.70
2006,07,24,10,55,22.70
2006,07,24,10,56,22.70
2006,07,24,10,57,22.60
2006,07,24,10,58,22.60
2006,07,24,10,59,22.50
2006,07,24,11,00,22.50
2006,07,24,11,01,22.50
2006,07,24,11,02,22.50
2006,07,24,11,03,22.50
2006,07,24,11,04,22.60
2006,07,24,11,05,22.60
2006,07,24,11,06,22.70
2006,07,24,11,07,22.80
2006,07,24,11,08,22.80
2006,07,24,11,09,22.90
2006,07,24,11,10,22.90
2006,07,24,11,11,23.10
2006,07,24,11,12,23.00
2006,07,24,11,13,22.90
2006,07,24,11,14,22.90
2006,07,24,11,15,22.90
2006,07,24,11,16,22.90
2006,07,24,11,17,22.90
2006,07,24,11,18,22.90
2006,07,24,11,19,22.90
2006,07,24,11,20,22.90
2006,07,24,11,21,22.80
2006,07,24,11,22,22.70
2006,07,24,11,23,22.60
2006,07,24,11,24,22.40
2006,07,24,11,25,22.40
2006,07,24,11,26,22.40
2006,07,24,11,27,22.40
2006,07,24,11,28,22.40
2006,07,24,11,29,22.20
2006,07,24,11,30,22.10
2006,07,24,11,31,22.00
2006,07,24,11,32,21.90
2006,07,24,11,33,21.80
2006,07,24,11,34,21.70
2006,07,24,11,35,21.70
2006,07,24,11,36,21.60
2006,07,24,11,37,21.60
2006,07,24,11,38,21.60
2006,07,24,11,39,21.70
2006,07,24,11,40,21.70
2006,07,24,11,41,21.90
2006,07,24,11,42,22.10
2006,07,24,11,43,22.20
2006,07,24,11,44,22.20
2006,07,24,11,45,22.20
2006,07,24,11,46,22.20
2006,07,24,11,47,22.30
2006,07,24,11,48,22.40
2006,07,24,11,49,22.40
2006,07,24,11,50,22.40
2006,07,24,11,51,22.30
2006,07,24,11,52,22.30
2006,07,24,11,53,22.30
2006,07,24,11,54,22.30
2006,07,24,11,55,22.20
2006,07,24,11,56,22.20
2006,07,24,11,57,22.20
2006,07,24,11,58,22.30
2006,07,24,11,59,22.20
2006,07,24,12,00,22.30
2006,07,24,12,01,22.30
2006,07,24,12,02,22.30
2006,07,24,12,03,22.30
2006,07,24,12,04,22.40
2006,07,24,12,05,22.50
2006,07,24,12,06,22.50
2006,07,24,12,07,22.60
2006,07,24,12,08,22.70
2006,07,24,12,09,22.90
2006,07,24,12,10,22.90
2006,07,24,12,11,22.90
2006,07,24,12,12,22.90
2006,07,24,12,13,23.00
2006,07,24,12,14,23.20
2006,07,24,12,15,23.30
2006,07,24,12,16,23.40
2006,07,24,12,17,23.50
2006,07,24,12,18,23.60
2006,07,24,12,19,23.60
2006,07,24,12,20,23.60
2006,07,24,12,21,23.60
2006,07,24,12,22,23.70
2006,07,24,12,23,23.70
2006,07,24,12,24,23.70
2006,07,24,12,25,23.60
2006,07,24,12,26,23.50
2006,07,24,12,27,23.50
2006,07,24,12,28,23.50
2006,07,24,12,29,23.40
2006,07,24,12,30,23.40
2006,07,24,12,31,23.30
2006,07,24,12,32,23.30
2006,07,24,12,33,23.30
2006,07,24,12,34,23.10
2006,07,24,12,35,23.10
2006,07,24,12,36,23.20
2006,07,24,12,37,23.30
2006,07,24,12,38,23.30
2006,07,24,12,39,23.30
2006,07,24,12,40,23.10
2006,07,24,12,41,22.90
2006,07,24,12,42,22.80
2006,07,24,12,43,22.70
2006,07,24,12,44,22.70
2006,07,24,12,45,22.80
2006,07,24,12,46,22.90
2006,07,24,12,47,22.90
2006,07,24,12,48,22.80
2006,07,24,12,49,22.90
2006,07,24,12,50,22.90
2006,07,24,12,51,22.90
2006,07,24,12,52,22.90
2006,07,24,12,53,23.00
2006,07,24,12,54,22.90
2006,07,24,12,55,22.90
2006,07,24,12,56,22.90
2006,07,24,12,57,22.90
2006,07,24,12,58,22.90
2006,07,24,12,59,22.90
2006,07,24,13,00,22.90
2006,07,24,13,01,22.90
2006,07,24,13,02,22.80
2006,07,24,13,03,22.80
2006,07,24,13,04,22.80
2006,07,24,13,05,22.80
2006,07,24,13,06,22.90
2006,07,24,13,07,22.90
2006,07,24,13,08,22.90
2006,07,24,13,09,23.00
2006,07,24,13,10,23.10
2006,07,24,13,11,23.30
2006,07,24,13,12,23.40
2006,07,24,13,13,23.40
2006,07,24,13,14,23.30
2006,07,24,13,15,23.20
2006,07,24,13,16,23.10
2006,07,24,13,17,23.30
2006,07,24,13,18,23.30
2006,07,24,13,19,23.50
2006,07,24,13,20,23.60
2006,07,24,13,21,23.60
2006,07,24,13,22,23.70
2006,07,24,13,23,23.70
2006,07,24,13,24,23.70
2006,07,24,13,25,23.70
2006,07,24,13,26,23.60
2006,07,24,13,27,23.50
2006,07,24,13,28,23.60
2006,07,24,13,29,23.70
2006,07,24,13,30,23.80
2006,07,24,13,31,23.90
2006,07,24,13,32,24.00
2006,07,24,13,33,24.10
2006,07,24,13,34,24.10
2006,07,24,13,35,23.90
2006,07,24,13,36,24.00
2006,07,24,13,37,24.10
2006,07,24,13,38,24.10
2006,07,24,13,39,24.20
2006,07,24,13,40,24.20
2006,07,24,13,41,24.20
2006,07,24,13,42,24.20
2006,07,24,13,43,24.10
2006,07,24,13,44,24.10
2006,07,24,13,45,24.20
2006,07,24,13,46,24.30
2006,07,24,13,47,24.30
2006,07,24,13,48,24.30
2006,07,24,13,49,24.30
2006,07,24,13,50,24.40
2006,07,24,13,51,24.40
2006,07,24,13,52,24.40
2006,07,24,13,53,24.40
2006,07,24,13,54,24.40
2006,07,24,13,55,24.40
2006,07,24,13,56,24.40
2006,07,24,13,57,24.30
2006,07,24,13,58,24.40
2006,07,24,13,59,24.40
2006,07,24,14,00,24.40
2006,07,24,14,01,24.40
2006,07,24,14,02,24.40
2006,07,24,14,03,24.40
2006,07,24,14,04,24.40
2006,07,24,14,05,24.40
2006,07,24,14,06,24.40
2006,07,24,14,07,24.40
2006,07,24,14,08,24.40
2006,07,24,14,09,24.40
2006,07,24,14,10,24.20
2006,07,24,14,11,24.20
2006,07,24,14,12,24.20
2006,07,24,14,13,24.20
2006,07,24,14,14,24.20
2006,07,24,14,15,24.30
2006,07,24,14,16,24.30
2006,07,24,14,17,24.30
2006,07,24,14,18,24.30
2006,07,24,14,19,24.40
2006,07,24,14,20,24.40
2006,07,24,14,21,24.30
2006,07,24,14,22,24.20
2006,07,24,14,23,24.20
2006,07,24,14,24,24.10
2006,07,24,14,25,24.10
2006,07,24,14,26,24.00
2006,07,24,14,27,24.00
2006,07,24,14,28,23.90
2006,07,24,14,29,23.90
2006,07,24,14,30,23.80
2006,07,24,14,31,23.90
2006,07,24,14,32,23.90
2006,07,24,14,33,23.90
2006,07,24,14,34,23.80
2006,07,24,14,35,23.80
2006,07,24,14,36,23.80
2006,07,24,14,37,23.90
2006,07,24,14,38,24.00
2006,07,24,14,39,24.20
2006,07,24,14,40,24.20
2006,07,24,14,41,24.30
2006,07,24,14,42,24.30
2006,07,24,14,43,24.30
2006,07,24,14,44,24.30
2006,07,24,14,45,24.30
2006,07,24,14,46,24.20
2006,07,24,14,47,24.00
2006,07,24,14,48,23.80
2006,07,24,14,49,23.90
2006,07,24,14,50,24.00
2006,07,24,14,51,24.30
2006,07,24,14,52,24.40
2006,07,24,14,53,24.40
2006,07,24,14,54,24.30
2006,07,24,14,55,24.30
2006,07,24,14,56,24.30
2006,07,24,14,57,24.30
2006,07,24,14,58,24.30
2006,07,24,14,59,24.30
2006,07,24,15,00,24.30
2006,07,24,15,01,24.40
2006,07,24,15,02,24.40
2006,07,24,15,03,24.40
2006,07,24,15,04,24.30
2006,07,24,15,05,24.30
2006,07,24,15,06,24.30
2006,07,24,15,07,24.20
2006,07,24,15,08,24.20
2006,07,24,15,09,24.10
2006,07,24,15,10,24.10
2006,07,24,15,11,24.20
2006,07,24,15,12,24.30
2006,07,24,15,13,24.30
2006,07,24,15,14,24.30
2006,07,24,15,15,24.20
2006,07,24,15,16,24.20
2006,07,24,15,17,24.20
2006,07,24,15,18,24.20
2006,07,24,15,19,24.20
2006,07,24,15,20,24.20
2006,07,24,15,21,24.30
2006,07,24,15,22,24.40
2006,07,24,15,23,24.50
2006,07,24,15,24,24.50
2006,07,24,15,25,24.50
2006,07,24,15,26,24.50
2006,07,24,15,27,24.50
2006,07,24,15,28,24.50
2006,07,24,15,29,24.60
2006,07,24,15,30,24.60
2006,07,24,15,31,24.60
2006,07,24,15,32,24.60
2006,07,24,15,33,24.50
2006,07,24,15,34,24.40
2006,07,24,15,35,24.10
2006,07,24,15,36,23.90
2006,07,24,15,37,23.70
2006,07,24,15,38,23.70
2006,07,24,15,39,23.80
2006,07,24,15,40,23.80
2006,07,24,15,41,23.90
2006,07,24,15,42,24.00
2006,07,24,15,43,23.90
2006,07,24,15,44,23.70
2006,07,24,15,45,23.70
2006,07,24,15,46,23.70
2006,07,24,15,47,23.70
2006,07,24,15,48,23.60
2006,07,24,15,49,23.50
2006,07,24,15,50,23.30
2006,07,24,15,51,23.30
2006,07,24,15,52,23.30
2006,07,24,15,53,23.30
2006,07,24,15,54,23.20
2006,07,24,15,55,23.30
2006,07,24,15,56,23.30
2006,07,24,15,57,23.30
2006,07,24,15,58,23.20
2006,07,24,15,59,23.40
2006,07,24,16,00,23.60
2006,07,24,16,01,23.70
2006,07,24,16,02,23.60
2006,07,24,16,03,23.50
2006,07,24,16,04,23.30
2006,07,24,16,05,23.10
2006,07,24,16,06,23.20
2006,07,24,16,07,23.30
2006,07,24,16,08,23.50
2006,07,24,16,09,23.70
2006,07,24,16,10,23.70
2006,07,24,16,11,23.90
2006,07,24,16,12,24.00
2006,07,24,16,13,23.80
2006,07,24,16,14,23.70
2006,07,24,16,15,23.70
2006,07,24,16,16,23.70
2006,07,24,16,17,23.70
2006,07,24,16,18,23.70
2006,07,24,16,19,23.70
2006,07,24,16,20,23.70
2006,07,24,16,21,23.70
2006,07,24,16,22,23.70
2006,07,24,16,23,23.70
2006,07,24,16,24,23.70
2006,07,24,16,25,23.70
2006,07,24,16,26,23.70
2006,07,24,16,27,23.80
2006,07,24,16,28,23.90
2006,07,24,16,29,23.90
2006,07,24,16,30,23.90
2006,07,24,16,31,23.80
2006,07,24,16,32,23.90
2006,07,24,16,33,23.90
2006,07,24,16,34,23.80
2006,07,24,16,35,23.70
2006,07,24,16,36,23.70
2006,07,24,16,37,23.70
2006,07,24,16,38,23.70
2006,07,24,16,39,23.70
2006,07,24,16,40,23.70
2006,07,24,16,41,23.90
2006,07,24,16,42,24.00
2006,07,24,16,43,24.10
2006,07,24,16,44,24.10
2006,07,24,16,45,24.20
2006,07,24,16,46,24.20
2006,07,24,16,47,24.20
2006,07,24,16,48,24.30
2006,07,24,16,49,24.40
2006,07,24,16,50,24.30
2006,07,24,16,51,24.30
2006,07,24,16,52,24.40
2006,07,24,16,53,24.30
2006,07,24,16,54,24.10
2006,07,24,16,55,24.00
2006,07,24,16,56,23.90
2006,07,24,16,57,23.90
2006,07,24,16,58,23.80
2006,07,24,16,59,23.80
2006,07,24,17,00,23.80
2006,07,24,17,01,23.80
2006,07,24,17,02,23.80
2006,07,24,17,03,24.00
2006,07,24,17,04,24.10
2006,07,24,17,05,24.10
2006,07,24,17,06,24.10
2006,07,24,17,07,24.10
2006,07,24,17,08,24.20
2006,07,24,17,09,24.30
2006,07,24,17,10,24.30
2006,07,24,17,11,24.30
2006,07,24,17,12,24.30
2006,07,24,17,13,24.30
2006,07,24,17,14,24.20
2006,07,24,17,15,24.10
2006,07,24,17,16,24.10
2006,07,24,17,17,24.00
2006,07,24,17,18,23.90
2006,07,24,17,19,24.10